Weather History for Colby, KS

Change the Weather History Date:

Friday, June 21, 2013

  Actual Average (KGLD) Record (KGLD)
Temperature  
Mean Temperature 82 °F 72 °F  
Max Temperature 96 °F 86 °F 105 °F (1936)
Min Temperature 69 °F 57 °F 45 °F (1951)
Degree Days  
Heating Degree Days 0 1  
Month to date heating degree days 36  
Since 1 June heating degree days 36  
Since 1 July heating degree days 5902  
Cooling Degree Days 18 7  
Month to date cooling degree days 103  
Year to date cooling degree days 144  
Since 1 June cooling degree days 103  
Growing Degree Days 32 (Base 50)    
Moisture  
Dew Point 59 °F    
Average Humidity 45    
Maximum Humidity 73    
Minimum Humidity 23    
Precipitation  
Precipitation 0.00 in 0.11 in 2.20 in (1951)
Month to date precipitation 2.30  
Year to date precipitation 8.78  
Snow  
Snow 0.00 in 0.00 in - ()
Month to date snowfall 0.0  
Since 1 June snowfall 0.0  
Since 1 July snowfall 35.5  
Snow Depth -    
Sea Level Pressure  
Sea Level Pressure 29.81 in    
Wind  
Wind Speed 18 mph (South)    
Max Wind Speed 30 mph    
Max Gust Speed 39 mph    
Visibility 10 miles    
Events      
T = Trace of Precipitation, MM = Missing Value Source: NWS Daily Summary

Daily Weather History Graph

Daily Weather History Graph

Search for Another Location

Airport:

Trip Planner

Search our weather history database for the weather conditions in past years. The results will help you decide how hot, cold, wet, or windy it might be!

Date:

Astronomy

Jun. 21, 2013 Rise Set
Actual Time 6:17 AM CDT 9:14 PM CDT
Civil Twilight 5:44 AM CDT 9:47 PM CDT
Nautical Twilight 5:03 AM CDT 10:28 PM CDT
Astronomical Twilight 4:16 AM CDT 11:15 PM CDT
Moon 7:27 PM CDT (6/21) 4:34 AM CDT (6/21)
Length of Visible Light 16h 02m
Length of Day
14h 57m
Waxing Gibbous, 95% of the Moon is Illuminated
Jun 21
Waxing Gibbous
Jun 23
Full
Jun 29
Last Quarter
Jul 8
New
Jul 15
First Quarter

Hourly Weather History & Observations

Time (CDT) Temp. Heat Index Dew Point Humidity Pressure Visibility Wind Dir Wind Speed Gust Speed Precip Events Conditions
12:15 AM 78.8 °F - 68.0 °F 69% 29.84 in 10.0 mi SE 16.1 mph 21.9 mph N/A   Clear
12:35 AM 78.8 °F - 68.0 °F 69% 29.84 in 10.0 mi SE 18.4 mph 21.9 mph N/A   Clear
12:55 AM 77.0 °F - 66.2 °F 69% 29.84 in 10.0 mi SE 15.0 mph - N/A   Clear
1:15 AM 77.0 °F - 64.4 °F 65% 29.85 in 10.0 mi SE 17.3 mph 23.0 mph N/A   Clear
1:35 AM 75.2 °F - 64.4 °F 69% 29.85 in 10.0 mi SE 16.1 mph 23.0 mph N/A   Clear
1:55 AM 73.4 °F - 64.4 °F 73% 29.85 in 10.0 mi SE 15.0 mph - N/A   Clear
2:15 AM 73.4 °F - 62.6 °F 69% 29.84 in 10.0 mi SE 19.6 mph - N/A   Clear
2:35 AM 73.4 °F - 62.6 °F 69% 29.84 in 10.0 mi SSE 18.4 mph - N/A   Clear
2:55 AM 75.2 °F - 60.8 °F 61% 29.82 in 10.0 mi South 18.4 mph 24.2 mph N/A   Clear
3:15 AM 77.0 °F - 55.4 °F 47% 29.82 in 10.0 mi South 20.7 mph 26.5 mph N/A   Clear
3:35 AM 77.0 °F - 51.8 °F 41% 29.81 in 10.0 mi South 20.7 mph 29.9 mph N/A   Clear
3:55 AM 77.0 °F - 51.8 °F 41% 29.81 in 10.0 mi South 20.7 mph 28.8 mph N/A   Clear
4:15 AM 75.2 °F - 51.8 °F 44% 29.81 in 10.0 mi South 19.6 mph 29.9 mph N/A   Clear
4:35 AM 75.2 °F - 51.8 °F 44% 29.80 in 10.0 mi South 19.6 mph 27.6 mph N/A   Clear
4:55 AM 73.4 °F - 51.8 °F 47% 29.81 in 10.0 mi South 16.1 mph 26.5 mph N/A   Clear
5:15 AM 73.4 °F - 53.6 °F 50% 29.81 in 10.0 mi South 16.1 mph 23.0 mph N/A   Clear
5:35 AM 73.4 °F - 53.6 °F 50% 29.81 in 10.0 mi SSW 18.4 mph 27.6 mph N/A   Clear
5:55 AM 73.4 °F - 53.6 °F 50% 29.81 in 10.0 mi SSW 18.4 mph 25.3 mph N/A   Clear
6:15 AM 71.6 °F - 53.6 °F 53% 29.81 in 10.0 mi SSW 16.1 mph 24.2 mph N/A   Clear
6:35 AM 71.6 °F - 53.6 °F 53% 29.81 in 10.0 mi SSW 16.1 mph 21.9 mph N/A   Clear
6:55 AM 69.8 °F - 53.6 °F 56% 29.81 in 10.0 mi SSW 15.0 mph 20.7 mph N/A   Clear
7:15 AM 69.8 °F - 55.4 °F 60% 29.82 in 10.0 mi SSW 12.7 mph - N/A   Clear
7:35 AM 69.8 °F - 55.4 °F 60% 29.85 in 10.0 mi SE 15.0 mph - N/A   Clear
7:55 AM 71.6 °F - 55.4 °F 57% 29.84 in 10.0 mi South 16.1 mph - N/A   Clear
8:15 AM 73.4 °F - 57.2 °F 57% 29.85 in 10.0 mi South 19.6 mph 25.3 mph N/A   Clear
8:35 AM 75.2 °F - 57.2 °F 53% 29.85 in 10.0 mi South 13.8 mph 25.3 mph N/A   Clear
8:55 AM 77.0 °F - 59.0 °F 54% 29.85 in 10.0 mi South 17.3 mph 24.2 mph N/A   Clear
9:15 AM 78.8 °F - 59.0 °F 51% 29.85 in 10.0 mi South 16.1 mph 24.2 mph N/A   Clear
9:35 AM 78.8 °F - 59.0 °F 51% 29.85 in 10.0 mi SSW 17.3 mph 25.3 mph N/A   Clear
9:55 AM 80.6 °F 81.1 °F 59.0 °F 48% 29.85 in 10.0 mi SSW 17.3 mph 24.2 mph N/A   Clear
10:15 AM 82.4 °F 82.5 °F 59.0 °F 45% 29.85 in 10.0 mi SSW 15.0 mph 20.7 mph N/A   Clear
10:35 AM 82.4 °F 82.5 °F 59.0 °F 45% 29.84 in 10.0 mi SW 17.3 mph 23.0 mph N/A   Clear
10:55 AM 84.2 °F 83.8 °F 59.0 °F 42% 29.82 in 10.0 mi SW 17.3 mph - N/A   Clear
11:15 AM 86.0 °F 85.4 °F 59.0 °F 40% 29.82 in 10.0 mi SW 15.0 mph 21.9 mph N/A   Clear
11:35 AM 87.8 °F 87.1 °F 59.0 °F 38% 29.82 in 10.0 mi SW 13.8 mph - N/A   Clear
11:55 AM 89.6 °F 88.9 °F 59.0 °F 36% 29.84 in 10.0 mi SSW 9.2 mph - N/A   Clear
12:15 PM 89.6 °F 88.9 °F 59.0 °F 36% 29.84 in 10.0 mi South 13.8 mph 23.0 mph N/A   Clear
12:35 PM 89.6 °F 88.9 °F 59.0 °F 36% 29.84 in 10.0 mi South 13.8 mph 19.6 mph N/A   Clear
12:55 PM 91.4 °F 90.7 °F 59.0 °F 34% 29.83 in 10.0 mi SSW 13.8 mph 20.7 mph N/A   Clear
1:15 PM 93.2 °F 92.6 °F 59.0 °F 32% 29.83 in 10.0 mi South 17.3 mph 24.2 mph N/A   Clear
1:35 PM 93.2 °F 92.6 °F 59.0 °F 32% 29.82 in 10.0 mi South 15.0 mph 23.0 mph N/A   Clear
1:55 PM 93.2 °F 93.3 °F 60.8 °F 34% 29.82 in 10.0 mi South 17.3 mph 24.2 mph N/A   Clear
2:15 PM 93.2 °F 93.3 °F 60.8 °F 34% 29.82 in 10.0 mi South 21.9 mph 25.3 mph N/A   Clear
2:35 PM 95.0 °F 95.2 °F 60.8 °F 32% 29.81 in 10.0 mi South 18.4 mph 27.6 mph N/A   Clear
2:55 PM 95.0 °F 94.4 °F 59.0 °F 30% 29.80 in 10.0 mi SSE 23.0 mph 29.9 mph N/A   Clear
3:15 PM 95.0 °F 94.4 °F 59.0 °F 30% 29.79 in 10.0 mi SSE 19.6 mph 23.0 mph N/A   Clear
3:35 PM 95.0 °F 93.7 °F 57.2 °F 28% 29.79 in 10.0 mi South 19.6 mph 26.5 mph N/A   Clear
3:55 PM 96.8 °F 95.8 °F 57.2 °F 27% 29.78 in 10.0 mi South 16.1 mph 21.9 mph N/A   Clear
4:15 PM 96.8 °F 95.1 °F 55.4 °F 25% 29.78 in 10.0 mi South 16.1 mph 28.8 mph N/A   Clear
4:35 PM 96.8 °F 95.1 °F 55.4 °F 25% 29.77 in 10.0 mi South 13.8 mph 26.5 mph N/A   Clear
4:55 PM 96.8 °F 95.1 °F 55.4 °F 25% 29.77 in 10.0 mi South 20.7 mph 28.8 mph N/A   Clear
5:15 PM 96.8 °F 95.1 °F 55.4 °F 25% 29.76 in 10.0 mi SSE 21.9 mph 29.9 mph N/A   Clear
5:35 PM 96.8 °F 95.1 °F 55.4 °F 25% 29.75 in 10.0 mi SSE 21.9 mph 29.9 mph N/A   Clear
5:55 PM 96.8 °F 95.1 °F 55.4 °F 25% 29.74 in 10.0 mi South 18.4 mph 26.5 mph N/A   Clear
6:15 PM 96.8 °F 94.4 °F 53.6 °F 23% 29.73 in 10.0 mi SSE 24.2 mph 31.1 mph N/A   Clear
6:35 PM 95.0 °F 94.4 °F 59.0 °F 30% 29.72 in 10.0 mi SSE 26.5 mph 39.1 mph N/A   Clear
6:55 PM 95.0 °F 95.2 °F 60.8 °F 32% 29.73 in 10.0 mi South 24.2 mph 38.0 mph N/A   Clear
7:15 PM 91.4 °F 91.4 °F 60.8 °F 36% 29.74 in 10.0 mi South 29.9 mph 38.0 mph N/A   Clear
7:35 PM 91.4 °F 91.4 °F 60.8 °F 36% 29.75 in 10.0 mi South 24.2 mph 31.1 mph N/A   Clear
7:55 PM 89.6 °F 90.1 °F 62.6 °F 40% 29.76 in 10.0 mi South 23.0 mph 34.5 mph N/A   Clear
8:15 PM 89.6 °F 90.1 °F 62.6 °F 40% 29.77 in 10.0 mi South 20.7 mph 34.5 mph N/A   Clear
8:35 PM 87.8 °F 88.5 °F 62.6 °F 43% 29.77 in 10.0 mi South 18.4 mph 31.1 mph N/A   Clear
8:55 PM 87.8 °F 89.4 °F 64.4 °F 46% 29.78 in 10.0 mi South 20.7 mph 27.6 mph N/A   Clear
9:15 PM 86.0 °F 86.6 °F 62.6 °F 45% 29.79 in 10.0 mi South 17.3 mph 25.3 mph N/A   Clear
9:35 PM 86.0 °F 87.3 °F 64.4 °F 48% 29.78 in 10.0 mi SSE 16.1 mph 25.3 mph N/A   Clear
9:55 PM 82.4 °F 83.9 °F 64.4 °F 54% 29.78 in 10.0 mi SSE 17.3 mph 23.0 mph N/A   Clear
10:15 PM 82.4 °F 83.9 °F 64.4 °F 54% 29.79 in 10.0 mi SSE 19.6 mph 23.0 mph N/A   Clear
10:35 PM 82.4 °F 83.9 °F 64.4 °F 54% 29.80 in 10.0 mi SSE 19.6 mph 25.3 mph N/A   Clear
10:55 PM 82.4 °F 83.9 °F 64.4 °F 54% 29.81 in 10.0 mi SSE 17.3 mph 26.5 mph N/A   Clear
11:15 PM 80.6 °F 82.3 °F 64.4 °F 58% 29.82 in 10.0 mi SSE 18.4 mph - N/A   Clear
11:35 PM 80.6 °F 82.3 °F 64.4 °F 58% 29.82 in 10.0 mi SSE 19.6 mph 27.6 mph N/A   Clear
11:55 PM 78.8 °F - 64.4 °F 61% 29.82 in 10.0 mi SSE 20.7 mph 25.3 mph N/A   Clear